Regional Weather Roundup
Issued by NWS

Home | Current Version | Previous Version | Text Only | Print | Product List | Glossary On
Versions: 1 2 3 4 5 6 7 8 9 10 11 12 13 14 15 16 17 18 19 20 21 22 23 24 25 26 27 28 29 30 31 32 33 34 35 36 37 38 39 40 41 42 43 44 45 46 47 48 49 50
000
ASUS44 KMEG 291710
RWRTN
TENNESSEE HOURLY STATE WEATHER ROUNDUP
NATIONAL WEATHER SERVICE MEMPHIS TN
1200 PM CDT THU JUN 29 2017

TNZ002-004-019-021-049-052-054-088>092-291800-
WEST TENNESSEE

CITY           SKY/WX    TMP DP  RH WIND       PRES   REMARKS
MEMPHIS INTL   PTSUNNY   83  71  67 S17       30.01S
NWS MEMPHIS      N/A     85 N/A N/A MISG        N/A
JACKSON        PTSUNNY   83  72  69 S9        30.03F
SOMERVILLE     PTSUNNY   82  72  69 S9        30.02S
COVINGTON      PTSUNNY   82  70  65 SW9       30.01F
UNION CITY     PTSUNNY   82  70  65 SW10G16   30.01S
BOLIVAR        PTSUNNY   84  70  61 VRB7      30.02F
HUNTINGDON     PTSUNNY   84  72  65 S10       30.02S
LEXINGTON      CLOUDY    81  72  74 S13       30.04F
SELMER         CLOUDY    81  72  74 SE6G12    30.04F
SAVANNAH       PTSUNNY   82  72  69 S9        30.04F
$$

TNZ008-025-027-028-033-062-065-066-291800-
NORTH MIDDLE TENNESSEE

CITY           SKY/WX    TMP DP  RH WIND       PRES   REMARKS
NASHVILLE      PTSUNNY   85  69  58 S13G24    30.06F
PORTLAND       PTSUNNY   84  70  61 S15G25    30.05S
CLARKSVILLE    PTSUNNY   84  70  62 SW12G18   30.03S
SMYRNA         PTSUNNY   84  71  65 S10       30.06F
COOKEVILLE     CLOUDY    81  70  69 S9G15     30.11S
GALLATIN       PTSUNNY   82  70  65 S8G17     30.07F
CROSSVILLE     CLOUDY    75  67  76 S8G16     30.17F
$$

TNZ061-075-076-078-094-096-097-291800-
SOUTH MIDDLE TENNESSEE

CITY           SKY/WX    TMP DP  RH WIND       PRES   REMARKS
FAYETTEVILLE   MOSUNNY   79  73  83 S6        30.09F
TULLAHOMA      PTSUNNY   81  70  69 S8        30.11F
WINCHESTER     MOSUNNY   81  70  69 S12       30.11F
MCMINNVILLE    MOSUNNY   82  72  69 S8        30.11F
COLUMBIA       MOSUNNY   81  72  74 S9        30.05F
SHELBYVILLE    PTSUNNY   79  73  83 SE7       30.09F
$$

TNZ017-018-042-046-047-291800-
NORTHEAST TENNESSEE

CITY           SKY/WX    TMP DP  RH WIND       PRES   REMARKS
TRI CITIES     MOSUNNY   84  61  45 VRB5      30.17F
ELIZABETHTON   SUNNY     84  61  45 CALM      30.17F
$$

TNZ012-013-036-069-073-074-291800-
CENTRAL EAST TENNESSEE

CITY           SKY/WX    TMP DP  RH WIND       PRES   REMARKS
KNOXVILLE      PTSUNNY   84  63  49 SW12      30.12F
OAK RIDGE      CLOUDY    84  63  49 VRB5      30.14F
DOWNTOWN KNOXV MOSUNNY   84  68  58 W10       30.11F
GATLINBURG       N/A     86  61  42 SW7       30.12F
MORRISTOWN     SUNNY     84  61  45 SW12      30.14F
JACKSBORO      PTSUNNY   82  66  57 S15       30.16F
$$

TNZ083-085-099-291800-
SOUTHEAST TENNESSEE

CITY           SKY/WX    TMP DP  RH WIND       PRES   REMARKS
CHATTANOOGA    CLOUDY    79  70  74 SE8       30.13F
DAYTON         CLOUDY    75  72  88 CALM      30.13F
$$

SKY/WX REPORTED AS FAIR MEANS FEW OR NO CLOUDS BELOW
12 THOUSAND FEET.





USA.gov is the U.S. government's official web portal to all federal, state and local government web resources and services.